Tampa Macdill AFB, FL

5:38 PM EDT on October 18, 2019 (GMT -0400)
MacDill Air Force Base

Weather History for KMCF - August, 2019

Change the Weather History Date:

Thursday, August 1, 2019

  Actual Average Record
Temperature  
Mean Temperature 82 °F -  
Max Temperature 91 °F 88 °F 95 °F (2016)
Min Temperature 72 °F 73 °F 71 °F (2017)
Cooling Degree Days 16    
Growing Degree Days 32 (Base 50)    
Moisture  
Dew Point 72 °F    
Average Humidity 77    
Maximum Humidity 94    
Minimum Humidity 46    
Precipitation  
Precipitation 0.10 in - - ()
Sea Level Pressure  
Sea Level Pressure 30.02 in    
Wind  
Wind Speed 8 mph (ENE)    
Max Wind Speed 20 mph    
Max Gust Speed 28 mph    
Visibility 10 miles    
Events Rain , Thunderstorm    
Averages and records for this station are not official NWS values.
T = Trace of Precipitation, MM = Missing Value Source: NWS Daily Summary

Daily Weather History Graph

Daily Weather History Graph

Search for Another Location

Airport or City:

Astronomy

Aug. 01, 2019 Rise Set
Actual Time 6:52 AM EDT 8:19 PM EDT
Civil Twilight 6:27 AM EDT 8:44 PM EDT
Nautical Twilight 5:57 AM EDT 9:15 PM EDT
Astronomical Twilight 5:25 AM EDT 9:46 PM EDT
Moon 7:17 AM EDT (8/1) 9:07 PM EDT (8/1)
Length of Visible Light 14h 17m
Length of Day
13h 26m
New Moon, 0% of the Moon is Illuminated
Aug 1
New Moon
Aug 7
First Quarter
Aug 15
Full
Aug 23
Last Quarter
Aug 30
New

Hourly Weather History & Observations

Time (EDT) Temp. Heat Index Dew Point Humidity Pressure Visibility Wind Dir Wind Speed Gust Speed Precip Events Conditions
12:07 AM 77.0 °F - 68.0 °F 74% 30.01 in 10.0 mi East 10.4 mph - N/A   Light Drizzle
12:20 AM 75.2 °F - 68.0 °F 78% 30.01 in 10.0 mi NNE 6.9 mph - N/A   Overcast
12:56 AM 74.8 °F - 68.5 °F 81% 30.03 in 10.0 mi NW 5.8 mph - 0.00 in   Overcast
1:33 AM 75.2 °F - 69.8 °F 83% 30.03 in 10.0 mi NNW 3.5 mph - N/A   Light Drizzle
1:51 AM 75.2 °F - 69.8 °F 83% 30.02 in 10.0 mi North 3.5 mph - N/A   Mostly Cloudy
1:56 AM 74.7 °F - 70.2 °F 86% 30.02 in 10.0 mi North 4.6 mph - 0.00 in   Mostly Cloudy
3:56 AM 73.0 °F - 67.8 °F 84% 30.03 in 10.0 mi North 3.5 mph - N/A   Mostly Cloudy
4:56 AM 72.9 °F - 68.7 °F 87% 30.03 in 10.0 mi NNE 4.6 mph - N/A   Overcast
5:56 AM 72.5 °F - 69.6 °F 91% 30.03 in 10.0 mi NNE 3.5 mph - N/A   Partly Cloudy
6:56 AM 72.3 °F - 69.8 °F 92% 30.03 in 10.0 mi ENE 4.6 mph - N/A   Clear
7:56 AM 77.7 °F - 72.9 °F 85% 30.05 in 10.0 mi East 9.2 mph - N/A   Partly Cloudy
8:56 AM 80.6 °F 85.4 °F 73.4 °F 79% 30.05 in 10.0 mi East 9.2 mph - N/A   Clear
9:56 AM 83.5 °F 90.6 °F 74.3 °F 74% 30.05 in 10.0 mi East 9.2 mph - N/A   Clear
10:56 AM 84.9 °F 93.7 °F 75.2 °F 73% 30.06 in 10.0 mi ESE 5.8 mph - N/A   Clear
11:56 AM 87.8 °F 96.1 °F 73.6 °F 63% 30.06 in 10.0 mi SE 4.6 mph - N/A   Clear
12:56 PM 88.2 °F 95.0 °F 72.0 °F 59% 30.05 in 10.0 mi South 6.9 mph - N/A   Clear
1:24 PM 89.6 °F 96.2 °F 71.6 °F 55% 30.04 in 10.0 mi SW 5.8 mph - N/A   Light Drizzle
1:34 PM 89.6 °F 96.2 °F 71.6 °F 55% 30.03 in 10.0 mi WSW 6.9 mph - N/A   Partly Cloudy
1:40 PM 89.6 °F 98.2 °F 73.4 °F 59% 30.03 in 10.0 mi WSW 6.9 mph - N/A   Light Drizzle
1:49 PM 89.6 °F 96.2 °F 71.6 °F 55% 30.03 in 10.0 mi West 6.9 mph - N/A   Partly Cloudy
1:56 PM 89.6 °F 94.3 °F 69.1 °F 51% 30.03 in 10.0 mi West 5.8 mph - 0.00 in   Scattered Clouds
2:56 PM 91.2 °F 97.0 °F 70.0 °F 50% 30.00 in 10.0 mi West 8.1 mph - 0.00 in   Light Drizzle
3:01 PM 91.4 °F 96.8 °F 69.8 °F 49% 30.00 in 10.0 mi West 6.9 mph - N/A Thunderstorm Partly Cloudy
3:17 PM 91.4 °F 95.4 °F 68.0 °F 46% 30.00 in 10.0 mi Calm Calm - N/A Thunderstorm Thunderstorm
3:38 PM 86.0 °F 93.4 °F 73.4 °F 66% 30.00 in 10.0 mi East 11.5 mph - N/A Thunderstorm Scattered Clouds
3:45 PM 87.8 °F 93.8 °F 71.6 °F 58% 29.99 in 10.0 mi SE 18.4 mph 25.3 mph N/A Thunderstorm Thunderstorm
3:53 PM 84.2 °F 89.6 °F 71.6 °F 66% 30.00 in 10.0 mi SE 18.4 mph 27.6 mph N/A Thunderstorm Unknown
3:56 PM 83.5 °F 88.8 °F 71.8 °F 68% 30.01 in 10.0 mi ESE 19.6 mph 27.6 mph 0.00 in Thunderstorm Unknown
4:09 PM 80.6 °F 84.6 °F 71.6 °F 74% 30.02 in 10.0 mi East 15.0 mph - N/A Thunderstorm Thunderstorm
4:14 PM 80.6 °F 85.4 °F 73.4 °F 79% 30.03 in 10.0 mi ESE 13.8 mph - N/A Thunderstorm Unknown
4:23 PM 80.6 °F 85.4 °F 73.4 °F 79% 30.03 in 10.0 mi East 12.7 mph - N/A Thunderstorm Thunderstorm
4:28 PM 78.8 °F - 73.4 °F 83% 30.03 in 10.0 mi ENE 10.4 mph - N/A Thunderstorm Thunderstorm
4:34 PM 78.8 °F - 73.4 °F 83% 30.05 in 10.0 mi NE 8.1 mph - N/A Thunderstorm Unknown
4:50 PM 77.0 °F - 71.6 °F 83% 30.05 in 8.0 mi East 8.1 mph - N/A Rain , Thunderstorm Heavy Thunderstorms and Rain
4:56 PM 76.5 °F - 72.0 °F 86% 30.05 in 8.0 mi ENE 4.6 mph - 0.05 in Rain , Thunderstorm Thunderstorms and Rain
5:06 PM 75.2 °F - 71.6 °F 89% 30.06 in 10.0 mi ENE 8.1 mph - N/A Rain Rain
5:11 PM 75.2 °F - 71.6 °F 89% 30.06 in 10.0 mi ENE 9.2 mph - N/A Rain Light Rain
5:24 PM 75.2 °F - 71.6 °F 89% 30.05 in 10.0 mi ENE 12.7 mph - N/A Rain , Thunderstorm Light Thunderstorms and Rain
6:01 PM - - - N/A% 30.04 in - North - - N/A   Unknown
6:02 PM - - - N/A% 30.04 in - East 8.1 mph - N/A Rain Rain
6:17 PM 75.2 °F - 71.6 °F 89% 30.02 in 10.0 mi East 9.2 mph - N/A Rain Light Rain
6:48 PM 77.0 °F - 73.4 °F 89% 29.99 in 10.0 mi ESE 10.4 mph - N/A   Scattered Clouds
6:56 PM 76.6 °F - 73.0 °F 89% 29.99 in 10.0 mi ESE 11.5 mph - 0.05 in   Partly Cloudy
7:54 PM 75.2 °F - 73.4 °F 94% 30.00 in 10.0 mi East 9.2 mph - N/A   Light Drizzle
7:56 PM 75.7 °F - 72.9 °F 91% 30.00 in 10.0 mi ENE 9.2 mph - 0.00 in   Light Drizzle
8:15 PM 75.2 °F - 73.4 °F 94% 30.00 in 10.0 mi NE 10.4 mph - N/A   Clear
8:56 PM 74.8 °F - 72.0 °F 91% 30.00 in 10.0 mi ENE 8.1 mph - 0.00 in   Clear
9:56 PM 75.9 °F - 72.1 °F 88% 30.00 in 10.0 mi East 12.7 mph - N/A   Clear
10:56 PM 75.7 °F - 71.6 °F 87% 30.01 in 10.0 mi ESE 16.1 mph 20.7 mph N/A   Partly Cloudy
11:56 PM 74.8 °F - 70.7 °F 87% 30.00 in 10.0 mi SE 9.2 mph - N/A   Scattered Clouds